TimeCST,TemperatureF,Dew PointF,Humidity,Sea Level PressureIn,VisibilityMPH,Wind Direction,Wind SpeedMPH,Gust SpeedMPH,PrecipitationIn,Events,Conditions,WindDirDegrees,DateUTC
12:13 AM,19.4,14.9,83,30.07,10.0,NE,10.4,16.1,N/A,,Overcast,50,2013-02-22 06:13:00
12:33 AM,19.4,15.3,84,30.06,10.0,NE,10.4,-,N/A,,Overcast,50,2013-02-22 06:33:00
12:53 AM,19.2,15.3,85,30.05,10.0,NE,9.2,-,N/A,,Overcast,50,2013-02-22 06:53:00
1:13 AM,19.2,15.4,85,30.04,10.0,NE,8.1,-,N/A,,Overcast,50,2013-02-22 07:13:00
1:33 AM,19.0,15.3,85,30.03,10.0,NE,8.1,-,N/A,,Mostly Cloudy,40,2013-02-22 07:33:00
1:53 AM,18.9,15.3,86,30.01,10.0,NNE,8.1,-,N/A,,Overcast,30,2013-02-22 07:53:00
2:13 AM,19.0,15.4,86,30.01,10.0,NE,10.4,-,N/A,,Overcast,40,2013-02-22 08:13:00
2:33 AM,19.0,15.6,87,30.00,10.0,NE,8.1,-,N/A,,Overcast,40,2013-02-22 08:33:00
2:54 AM,19.0,15.8,87,30.00,10.0,NE,5.8,-,N/A,,Overcast,40,2013-02-22 08:54:00
3:13 AM,19.2,15.8,87,29.99,10.0,NE,5.8,-,N/A,,Overcast,40,2013-02-22 09:13:00
3:33 AM,19.2,16.0,87,29.99,7.0,NE,8.1,-,N/A,Snow,Light Snow,40,2013-02-22 09:33:00
3:53 AM,19.2,16.5,89,29.97,3.0,NE,5.8,-,N/A,Snow,Light Snow,40,2013-02-22 09:53:00
4:13 AM,19.2,16.7,90,29.98,2.5,NE,5.8,-,N/A,Snow,Light Snow,50,2013-02-22 10:13:00
4:33 AM,19.2,16.9,91,29.97,2.5,NE,5.8,-,N/A,Snow,Light Snow,40,2013-02-22 10:33:00
4:53 AM,19.2,17.1,91,29.97,4.0,NNE,4.6,-,N/A,Snow,Light Snow,30,2013-02-22 10:53:00
5:13 AM,19.2,17.2,92,29.97,2.0,NNE,4.6,-,N/A,Snow,Light Snow,20,2013-02-22 11:13:00
5:33 AM,19.2,17.4,93,29.96,1.5,North,4.6,-,N/A,Snow,Light Snow,10,2013-02-22 11:33:00
5:53 AM,19.2,17.4,93,29.96,1.8,North,4.6,-,N/A,Snow,Light Snow,10,2013-02-22 11:53:00
6:13 AM,19.2,17.4,93,29.95,2.0,NNE,5.8,-,N/A,Snow,Light Snow,20,2013-02-22 12:13:00
6:33 AM,19.4,17.6,93,29.95,2.5,NNE,5.8,-,N/A,Snow,Light Snow,20,2013-02-22 12:33:00
6:54 AM,19.2,17.4,93,29.95,5.0,NNE,5.8,-,N/A,Snow,Light Snow,20,2013-02-22 12:54:00
7:13 AM,19.4,17.6,93,29.95,5.0,North,4.6,-,N/A,Snow,Light Snow,10,2013-02-22 13:13:00
7:33 AM,19.6,17.6,92,29.94,7.0,NNE,6.9,-,N/A,Snow,Light Snow,20,2013-02-22 13:33:00
7:53 AM,19.9,17.6,91,29.94,7.0,North,4.6,-,N/A,Snow,Light Snow,10,2013-02-22 13:53:00
8:13 AM,20.3,18.0,91,29.94,5.0,NNE,5.8,-,N/A,Snow,Light Snow,20,2013-02-22 14:13:00
8:33 AM,20.7,18.1,90,29.94,4.0,North,5.8,-,N/A,Snow,Light Snow,10,2013-02-22 14:33:00
8:53 AM,20.8,17.6,87,29.93,3.0,NNE,9.2,-,N/A,Snow,Light Snow,20,2013-02-22 14:53:00
9:13 AM,20.8,17.6,87,29.93,3.0,North,6.9,-,N/A,Snow,Light Snow,10,2013-02-22 15:13:00
9:33 AM,21.0,17.1,85,29.93,7.0,NE,6.9,-,N/A,Snow,Light Snow,40,2013-02-22 15:33:00
9:53 AM,21.2,17.2,85,29.92,7.0,NE,4.6,-,N/A,Snow,Light Snow,40,2013-02-22 15:53:00
10:13 AM,21.6,17.6,85,29.92,10.0,NNE,5.8,-,N/A,Snow,Light Snow,20,2013-02-22 16:13:00
10:33 AM,21.9,17.2,82,29.91,10.0,NE,8.1,-,N/A,,Overcast,50,2013-02-22 16:33:00
11:13 AM,22.1,17.6,83,29.91,10.0,NNE,4.6,-,N/A,,Mostly Cloudy,20,2013-02-22 17:13:00
11:33 AM,22.6,17.6,81,29.91,10.0,North,4.6,-,N/A,,Overcast,10,2013-02-22 17:33:00
11:53 AM,23.0,17.6,80,29.90,10.0,North,4.6,-,N/A,,Overcast,10,2013-02-22 17:53:00
12:13 PM,23.4,18.0,80,29.90,10.0,North,5.8,-,N/A,,Overcast,360,2013-02-22 18:13:00
12:33 PM,24.3,18.1,77,29.89,10.0,NNW,8.1,-,N/A,,Overcast,330,2013-02-22 18:33:00
12:53 PM,23.9,18.3,79,29.89,7.0,NNW,6.9,-,N/A,,Overcast,340,2013-02-22 18:53:00
1:13 PM,23.5,18.1,80,29.88,5.0,NW,6.9,-,N/A,Snow,Light Snow,320,2013-02-22 19:13:00
1:33 PM,23.9,18.1,79,29.87,7.0,North,4.6,-,N/A,Snow,Light Snow,350,2013-02-22 19:33:00
1:53 PM,23.9,18.3,79,29.87,7.0,NW,8.1,-,N/A,Snow,Light Snow,320,2013-02-22 19:53:00
2:13 PM,24.1,18.3,79,29.87,10.0,NW,6.9,-,N/A,Snow,Light Snow,320,2013-02-22 20:13:00
2:33 PM,23.9,18.5,80,29.87,10.0,WNW,6.9,-,N/A,Snow,Light Snow,290,2013-02-22 20:33:00
2:53 PM,24.3,18.5,79,29.87,10.0,NW,6.9,-,N/A,,Overcast,310,2013-02-22 20:53:00
3:13 PM,23.7,18.5,80,29.87,10.0,WNW,6.9,-,N/A,Snow,Light Snow,290,2013-02-22 21:13:00
3:33 PM,23.7,18.5,80,29.88,5.0,WNW,8.1,-,N/A,Snow,Light Snow,300,2013-02-22 21:33:00
3:53 PM,23.7,19.0,82,29.88,4.0,WNW,9.2,-,N/A,Snow,Light Snow,300,2013-02-22 21:53:00
4:13 PM,23.5,18.9,82,29.88,10.0,WNW,8.1,-,N/A,Snow,Light Snow,300,2013-02-22 22:13:00
4:33 PM,23.4,19.0,84,29.88,7.0,NW,8.1,-,N/A,Snow,Light Snow,310,2013-02-22 22:33:00
4:53 PM,23.2,19.2,85,29.89,5.0,WNW,4.6,-,N/A,Snow,Light Snow,300,2013-02-22 22:53:00
5:13 PM,23.0,19.2,85,29.89,5.0,WNW,5.8,-,N/A,Snow,Light Snow,300,2013-02-22 23:13:00
5:33 PM,22.8,19.0,85,29.89,4.0,WNW,5.8,-,N/A,Snow,Light Snow,300,2013-02-22 23:33:00
5:53 PM,22.6,18.9,85,29.89,5.0,WNW,4.6,-,N/A,Snow,Light Snow,290,2013-02-22 23:53:00
6:13 PM,22.6,18.9,85,29.89,7.0,WNW,5.8,-,N/A,Snow,Light Snow,300,2013-02-23 00:13:00
6:33 PM,22.3,19.0,87,29.89,7.0,WNW,4.6,-,N/A,Snow,Light Snow,290,2013-02-23 00:33:00
6:53 PM,22.1,18.9,87,29.89,7.0,WNW,4.6,-,N/A,Snow,Light Snow,290,2013-02-23 00:53:00
7:14 PM,21.9,18.9,88,29.89,10.0,West,5.8,-,N/A,Snow,Light Snow,280,2013-02-23 01:14:00
7:33 PM,21.7,18.5,87,29.89,10.0,West,3.5,-,N/A,Snow,Light Snow,280,2013-02-23 01:33:00
7:53 PM,21.0,18.1,89,29.89,10.0,West,5.8,-,N/A,Snow,Light Snow,280,2013-02-23 01:53:00
8:13 PM,20.7,18.0,89,29.88,10.0,WNW,3.5,-,N/A,Snow,Light Snow,290,2013-02-23 02:13:00
8:33 PM,20.3,17.6,89,29.88,10.0,West,5.8,-,N/A,,Overcast,270,2013-02-23 02:33:00
8:53 PM,20.1,17.6,90,29.88,10.0,West,3.5,-,N/A,,Overcast,280,2013-02-23 02:53:00
9:13 PM,19.9,17.4,90,29.87,10.0,West,4.6,-,N/A,,Overcast,280,2013-02-23 03:13:00
9:33 PM,19.6,17.4,91,29.87,10.0,West,8.1,-,N/A,Snow,Light Snow,270,2013-02-23 03:33:00
9:53 PM,19.2,16.7,90,29.87,10.0,West,5.8,-,N/A,Snow,Light Snow,270,2013-02-23 03:53:00
10:13 PM,18.9,16.5,91,29.86,10.0,West,9.2,-,N/A,,Overcast,270,2013-02-23 04:13:00
10:33 PM,18.5,16.2,91,29.86,10.0,West,5.8,-,N/A,,Overcast,270,2013-02-23 04:33:00
10:53 PM,18.3,15.8,90,29.86,10.0,West,5.8,-,N/A,,Overcast,270,2013-02-23 04:53:00
11:13 PM,18.0,15.4,90,29.86,10.0,West,8.1,-,N/A,,Overcast,270,2013-02-23 05:13:00
11:33 PM,17.4,14.9,90,29.86,10.0,West,9.2,-,N/A,,Overcast,260,2013-02-23 05:33:00
11:53 PM,16.7,14.4,91,29.87,10.0,West,9.2,-,N/A,,Overcast,270,2013-02-23 05:53:00